RADUGA 22 [-]

Last updated on June 24, 2019, 3:40 a.m. UTC

1 19596U 88095A   19173.85977306 -.00000370  00000-0  00000-0 0  9997
2 19596  14.4381 350.7578 0004354  67.3259 288.2917  1.00222822 96063
UTC
Height (km)
Latitude
Longitude
Inclination
Orbital Period
UTC large
Height (km)
Speed (km/s)
/
Latitude / Longitude
Inclination (degrees)
Orbital Period (minutes)
Azimuth
Elevation
Range (km)
Doppler Factor
iOS Compass Heading
iOS Angle

Next 30 passes for location: Hong Kong

Rise time Rise Azimuth (degrees) Set time Set Azimuth (degrees) Duration Max altitude (degrees)

No matching passes for this satellites